Погода в Головтееве

Россия / Калужская область     54°54′46″N   36°22′21″E
темп.,
°C
ветер,
м/с
пор.,
м/с
влажн.,
%
обл.,
%
осадки,
мм/ч
давл.,
гПа
погр.,
м
8 мая, сб
сб800:00+7ююв41174100 0.0 1011241
03:00+7ююв51387100 1.5 1009650
06:00+8ююв81593100 2.9 1007864
09:00+8ююв51296100 6.2 1006782
12:00+8ююв4897100 4.1 1004544
15:00+8ююв2497100 7.5 1003272
18:00+8сз2498100 2.4 1002197
21:00+7сз71195100 5.3 1003900
9 мая, вс
вс900:00+5сз71496100 3.6 10051004
03:00+4сз81488100 4.9 1008902
06:00+3зсз71290100 0.0 1011816
09:00+3сз71086100 0.1 10151027
12:00+6сз71066100 0.0 10171366
15:00+11сз7948100 0.1 10182231
18:00+9сз586061 0.1 1020848
21:00+5зсз35735 0.1 102464
10 мая, пн
пн1000:00+3сз35772 0.0 102564
03:00+2ссз33735 0.0 102833
06:00+3ссз11735 0.0 102918
09:00+10ссз115519 0.0 1030381
12:00+13з124611 0.0 10301341
15:00+15сз13415 0.0 10291780
18:00+15юз01485 0.0 10291451
21:00+9с11624 0.0 103010
11 мая, вт
вт1100:00+7в22731 0.0 103010
03:00+5в22755 0.0 103111
06:00+6всв237392 0.0 103153
09:00+12в3658100 0.0 1031464
12:00+16всв46465 0.0 10301112
15:00+17в56460 0.0 10281259
18:00+16всв36600 0.0 1028391
21:00+10всв33764 0.0 102822
12 мая, ср
ср1200:00+8всв35850 0.0 102881
03:00+7всв38851 0.0 1027138
06:00+8св411850 0.0 1026250
09:00+13в51076100 0.0 1026572
12:00+15в597590 0.0 1026786
15:00+14в488161 0.1 1025570
18:00+13в3987100 0.0 1024308
21:00+14в6148675 0.1 1023663